Location: Asheville, NC
(35.6000°N, 82.5500°W)
Time: 17:14:54
(UTC-05:00)

STRAND 1 - Pass Details

Date: 10 January 2018
Orbit: 768 x 782 km, 98.5° (Epoch: 20 January)

Event Time Altitude Azimuth Distance (km) Brightness Sun altitude
Rises 06:07:32 0° 128° (SE) 3,226 ? -18.4°
Reaches altitude 10° 06:10:24 10° 111° (ESE) 2,303 ? -17.9°
Maximum altitude 06:13:59 20° 66° (ENE) 1,728 ? -17.2°
Drops below altitude 10° 06:17:34 10° 21° (NNE) 2,311 ? -16.5°
Sets 06:20:26 0° 5° (N) 3,242 ? -15.9°
